Temperature
18 18 18 18 18 18 18 18 18 18 18 18 18 18 18 18 18 18 18 18 18 18 18 18 18 18 18 18 18 18 18 18 18 18 18 18 18 18 18 18 17 17 18
18 18 18 18 18 18 18 18 18 18 18 18 18 18 18 18 18 18 18 18 18 18 18 18 18 18 18 18 18 18 18 18 18 18 18 18 18 18 18 18 17 17 17
18 18 18 18 18 18 18 18 18 18 18 18 18 18 18 18 18 18 18 18 18 18 18 18 18 18 18 18 18 18 18 18 18 18 17 17 17 18 18 18 17 17 17
18 18 17 18 18 18 18 18 18 18 18 18 18 18 18 18 18 18 18 18 18 18 18 18 18 18 18 18 18 18 18 18 18 18 17 17 17 17 17 17 17 17 17
18 18 18 18 18 18 18 18 18 18 18 18 18 18 18 18 18 18 18 18 18 18 18 18 18 18 18 18 18 18 18 18 18 17 17 17 17 17 17 17 17 17 17
18 18 18 18 18 18 18 18 18 18 18 18 18 18 18 18 18 18 18 18 18 18 18 18 18 18 18 18 18 18 18 18 18 17 17 17 17 17 17 17 17 17 17
19 18 18 18 18 18 18 18 18 18 18 18 18 18 18 18 18 18 18 18 18 18 18 18 18 18 18 18 18 18 18 18 18 18 17 17 17 17 17 17 17 17 17
19 19 18 18 18 18 18 18 18 18 18 18 18 18 18 18 18 18 18 18 18 18 18 18 18 18 18 18 18 18 18 17 18 17 17 17 17 17 17 17 17 17 17
19 19 18 18 18 18 18 18 18 18 18 18 18 18 18 18 18 18 18 18 18 18 18 18 18 18 18 18 18 18 18 18 18 18 17 17 17 17 17 17 17 17 17
19 19 18 18 18 18 18 18 18 18 18 18 18 18 18 18 18 18 18 18 18 18 18 18 18 18 18 18 18 18 18 18 18 18 18 17 18 18 17 17 17 17 17
19 19 19 19 18 18 18 18 18 18 18 18 18 18 18 17 17 17 17 18 18 18 18 18 18 18 18 18 18 18 18 18 18 18 18 18 18 17 17 17 17 17 17
19 19 19 18 18 18 18 18 18 17 17 17 17 17 17 17 17 17 18 18 18 18 18 18 18 18 18 18 18 18 18 18 18 18 18 18 18 17 17 17 17 17 17
19 19 19 18 18 18 18 18 18 18 17 17 17 17 17 17 17 17 17 18 18 18 17 18 17 17 17 18 18 18 18 18 18 18 18 18 18 17 17 17 17 17 17
19 19 19 18 18 18 18 18 18 18 18 18 18 17 17 17 17 17 17 17 17 17 17 18 17 17 17 17 17 18 18 18 18 18 17 18 17 17 17 17 17 17 17
19 19 19 18 18 18 18 18 18 18 18 18 18 18 18 18 18 17 17 17 17 18 18 17 17 17 17 17 17 18 17 17 17 17 17 17 17 17 17 17 17 17 17
19 19 19 18 18 18 18 18 18 18 18 18 18 18 18 18 18 18 17 17 18 18 18 18 17 17 17 17 17 17 17 17 17 17 17 17 17 17 17 17 17 17 17
20 19 19 19 18 18 18 18 18 18 18 18 18 18 18 18 18 18 18 18 18 18 17 17 17 18 17 17 17 17 17 17 17 17 17 17 17 17 17 17 17 17 17
20 19 19 19 19 18 18 18 18 18 18 18 18 18 18 18 18 18 18 18 18 18 18 18 17 17 17 17 17 17 17 17 17 17 17 17 17 17 17 17 17 17 17
20 19 19 19 19 18 18 18 18 18 18 18 18 18 18 18 18 18 18 18 18 18 18 18 18 17 17 17 17 17 17 17 17 17 17 17 16 16 16 16 16 16 16
20 19 19 19 19 18 18 18 18 18 18 18 18 18 18 18 18 18 18 18 18 18 18 18 18 17 17 17 17 17 17 17 17 17 16 16 16 16 16 16 16 16 16
20 20 19 19 19 19 18 18 18 18 18 18 18 18 18 18 18 18 18 18 18 18 18 17 17 17 17 17 17 17 17 17 16 16 16 16 16 16 16 16 16 15 15
20 20 20 20 19 19 19 18 18 18 18 18 18 18 18 18 18 18 18 17 18 18 17 17 17 17 17 17 17 17 17 17 16 16 16 16 16 16 16 15 15 15 15
21 20 20 20 19 19 19 18 18 18 18 18 18 18 18 18 18 18 18 18 18 17 17 17 17 17 17 17 17 18 18 18 16 16 16 16 15 15 15 15 15 15 15
21 21 20 20 20 20 19 19 19 19 19 18 18 18 18 18 17 17 17 17 17 17 17 17 17 17 17 17 17 17 17 17 17 16 16 15 15 15 15 15 15 15 15
21 21 21 20 20 20 20 19 19 19 18 18 18 18 18 18 18 17 17 17 17 17 17 17 17 17 17 17 17 17 17 17 17 17 16 16 15 15 15 15 15 14 14
22 21 21 20 20 20 20 19 19 19 18 18 18 18 18 18 18 17 17 17 17 17 17 17 17 17 17 17 17 17 17 17 17 17 16 16 15 15 15 14 14 14 14
Wind_Speed
3 5 8 7 8 9 11 11 11 10 10 11 11 11 12 12 13 14 14 14 15 15 16 16 17 17 17 17 18 18 18 17 17 17 16 16 15 15 15 15 14 14 17
3 6 9 8 9 10 11 11 11 10 11 11 11 12 12 13 13 14 14 15 15 15 16 16 17 17 17 17 17 17 17 16 16 16 16 15 14 13 13 10 9 14 15
5 7 9 9 9 10 11 11 10 11 11 12 12 12 13 14 13 14 14 15 15 15 16 17 17 17 17 16 16 16 16 15 15 14 13 13 14 12 11 12 13 15 14
6 7 10 10 10 10 10 10 10 12 12 13 13 14 14 14 14 15 14 15 15 15 16 17 16 16 16 16 16 15 15 14 12 11 10 11 13 13 12 12 13 14 13
7 8 12 10 10 10 10 10 11 12 12 13 14 14 14 14 14 15 15 15 15 15 16 16 16 16 16 16 15 14 13 12 10 9 10 10 12 14 12 12 12 12 12
7 9 12 9 10 10 10 10 11 11 13 13 14 14 14 15 15 15 15 15 14 14 15 16 15 15 15 15 14 13 12 10 10 10 10 10 11 13 12 12 12 12 11
8 9 11 9 9 10 10 10 10 11 12 13 13 13 14 14 14 14 14 14 14 14 15 15 15 14 14 13 13 12 10 7 7 9 9 9 11 13 11 11 11 11 11
9 9 11 11 9 9 9 10 11 12 12 12 13 13 13 13 13 14 15 15 14 14 14 14 14 13 13 12 12 10 8 4 8 9 8 10 13 12 10 10 9 10 10
8 8 8 9 10 9 9 10 11 11 11 11 12 12 12 13 14 14 13 13 14 14 13 13 13 12 12 11 10 9 6 2 4 7 8 9 13 11 10 9 9 9 10
7 7 7 8 8 8 10 11 11 11 11 11 11 11 11 13 13 12 12 12 13 13 12 12 12 11 11 10 9 8 5 4 4 6 7 10 12 10 10 9 8 8 9
7 6 6 7 7 7 8 10 10 10 9 9 10 10 8 9 10 10 12 12 11 11 11 10 10 9 9 10 9 7 6 4 4 4 6 12 11 9 9 9 9 9 9
7 6 6 5 6 6 6 7 6 6 7 6 7 7 7 8 7 9 11 10 10 10 10 9 7 7 6 7 9 8 4 4 3 4 8 12 9 8 8 8 8 8 8
7 6 6 6 5 5 5 4 4 4 5 5 6 6 6 6 6 6 6 7 7 7 6 8 6 4 4 4 2 3 3 2 2 4 9 10 7 7 7 7 8 7 8
6 6 5 6 5 4 3 4 3 3 3 3 4 4 4 4 4 4 3 4 4 4 4 3 3 4 4 4 3 2 3 2 3 3 7 8 6 6 5 6 7 7 8
6 5 5 4 4 4 3 2 3 3 3 4 4 4 3 3 3 4 3 2 2 3 4 3 3 3 3 3 3 3 2 3 3 2 5 7 6 4 4 4 5 6 6
5 5 5 5 5 4 3 2 2 3 2 3 3 4 3 3 3 3 3 3 2 2 3 3 3 3 2 2 2 3 2 3 3 2 3 6 6 4 3 3 3 3 4
6 5 5 5 5 4 3 2 2 2 3 3 3 3 3 3 3 2 2 3 3 3 3 3 3 3 2 3 3 3 2 2 3 3 2 3 5 6 5 4 3 2 3
5 6 5 4 6 5 3 2 2 3 4 3 2 3 3 3 2 1 2 2 3 3 3 3 2 2 2 2 2 2 3 3 3 3 3 3 3 4 6 5 4 3 3
6 6 6 5 5 5 4 3 2 3 3 3 2 2 2 2 2 1 2 2 2 2 2 2 3 2 3 2 3 3 3 3 3 3 3 4 4 3 4 6 5 4 4
7 7 7 6 6 5 4 4 2 2 2 2 2 2 1 2 2 1 2 2 2 2 2 2 2 2 2 2 2 4 3 3 3 3 3 3 3 3 3 4 4 4 4
8 8 8 7 7 6 4 4 3 3 2 2 2 2 1 1 2 1 1 2 2 2 2 2 3 4 3 3 3 3 3 4 4 3 3 3 3 4 4 4 3 2 4
10 10 9 9 8 7 5 3 2 2 2 2 1 2 1 2 1 2 2 1 2 2 3 2 3 2 2 3 2 2 2 3 3 3 3 3 3 3 4 4 4 4 3
11 11 9 9 9 8 7 5 4 3 3 3 3 2 2 1 1 1 1 0 1 2 2 3 3 3 3 2 2 2 1 1 2 2 3 3 3 3 3 4 4 4 4
12 11 10 10 9 9 8 6 5 4 2 2 2 2 2 1 1 1 1 1 1 1 1 3 2 2 3 2 2 1 1 1 1 2 2 3 3 3 3 3 4 4 5
11 11 11 10 10 9 8 7 6 4 3 3 3 3 1 1 1 1 1 0 1 1 1 1 1 3 3 2 2 1 1 1 2 2 2 2 2 2 2 2 3 3 5
11 11 11 11 10 10 9 8 7 5 4 3 3 3 2 2 1 1 1 0 1 1 1 2 2 2 2 2 2 2 2 1 1 1 2 3 2 2 2 2 2 3 4
Wind_Direction
47 68 84 79 75 78 80 81 80 81 83 89 97 101 102 105 107 109 110 111 112 113 113 113 114 115 115 114 114 117 119 118 119 119 119 121 123 126 130 136 143 127 122
68 81 93 83 81 80 80 79 79 78 82 89 95 99 101 103 105 111 113 114 114 114 114 114 115 115 115 114 115 117 119 121 122 124 126 126 125 126 130 131 118 120 129
84 90 94 84 85 82 82 81 79 79 83 87 94 98 101 102 105 111 112 113 113 113 113 113 113 114 115 115 116 117 118 121 126 133 143 133 126 125 127 123 119 126 131
88 89 86 84 85 82 82 82 79 81 84 87 91 96 100 102 105 109 111 111 110 110 111 113 113 113 115 115 115 117 119 122 132 152 143 127 127 125 127 126 127 129 131
90 93 89 81 83 82 81 82 81 82 86 88 92 95 99 100 102 104 108 111 110 111 111 112 113 113 114 115 115 117 120 127 147 156 123 122 122 128 132 131 131 133 134
102 97 93 83 82 81 80 81 81 83 86 89 92 95 96 99 100 102 106 109 110 111 112 113 113 114 115 115 116 119 123 140 167 129 124 126 123 130 135 135 133 134 137
103 100 97 88 81 80 81 83 85 86 88 92 94 94 96 98 101 101 102 107 110 108 109 112 112 113 115 116 118 121 127 147 141 121 125 121 118 128 135 136 137 139 143
100 100 102 101 88 80 80 88 88 89 91 93 94 94 95 99 100 101 103 106 112 112 110 111 112 112 112 116 118 123 133 164 131 122 120 116 117 128 134 135 138 146 152
96 96 99 109 107 98 86 90 90 88 90 94 94 95 96 98 100 101 102 109 115 116 113 111 111 111 114 118 121 124 129 150 131 120 119 118 124 134 140 139 139 145 150
100 97 99 97 97 106 106 97 92 88 88 95 99 101 106 108 107 108 110 109 119 117 115 112 112 111 115 119 121 125 140 184 140 122 118 119 129 139 145 147 152 154 153
101 100 97 99 101 99 100 105 108 104 98 107 110 112 118 109 108 112 98 105 110 113 113 113 114 119 127 132 130 145 178 162 123 108 108 115 133 144 152 159 165 166 164
114 110 102 95 95 98 98 103 101 100 97 92 88 94 100 99 98 101 104 106 107 113 118 118 126 149 180 146 147 175 171 138 124 120 111 121 140 154 162 169 173 174 175
122 114 112 105 104 102 102 102 95 96 95 93 86 89 95 106 113 113 117 123 124 131 130 131 153 148 127 108 124 140 113 111 104 103 109 123 142 164 176 179 184 187 188
124 120 116 116 111 97 86 98 109 106 99 88 88 86 101 108 108 111 112 109 123 125 119 129 120 108 107 115 115 110 117 120 105 97 107 125 142 164 179 187 192 195 196
138 136 129 123 121 124 115 90 91 81 84 94 88 84 89 113 112 107 101 110 115 117 132 125 113 106 108 116 118 115 100 99 102 118 118 126 134 143 166 182 194 200 204
152 145 137 142 137 138 130 111 87 86 84 70 81 79 83 102 109 118 131 124 118 115 104 111 118 114 107 91 102 108 106 102 102 121 130 131 134 136 147 163 177 193 201
164 157 154 152 146 147 139 138 116 100 90 78 77 86 95 109 115 133 126 135 128 125 124 130 124 128 131 123 107 98 107 115 119 125 136 139 135 127 113 108 108 125 175
173 166 174 167 150 150 143 129 104 87 85 87 85 91 95 98 123 137 122 119 126 144 142 141 149 127 122 118 112 109 109 107 102 103 108 113 115 116 119 111 100 93 108
185 179 177 172 163 154 147 146 129 104 92 104 97 81 97 119 140 153 119 107 147 149 152 164 126 139 128 121 128 122 100 96 93 91 90 89 94 99 112 123 120 98 87
187 186 183 180 175 169 161 157 151 131 128 117 104 88 106 140 139 154 150 131 162 148 146 127 133 142 138 140 114 93 85 88 86 85 90 93 93 91 93 105 131 131 103
187 186 186 186 178 179 175 179 164 155 152 135 124 97 108 126 133 172 129 137 178 149 150 159 157 156 155 142 141 122 106 90 83 89 79 83 83 75 68 70 74 91 120
189 188 186 187 185 186 178 176 164 145 162 149 123 111 123 133 171 165 151 180 150 156 166 171 179 191 180 185 199 178 161 136 103 78 89 91 84 84 78 72 67 54 52
192 192 191 188 183 187 180 180 168 171 189 161 149 138 124 121 147 103 157 176 177 202 166 188 199 206 209 214 240 261 230 139 125 106 78 78 81 76 76 75 73 63 53
194 191 189 185 184 183 186 191 190 198 184 145 150 129 132 127 117 133 158 169 242 234 171 221 197 232 228 227 209 259 322 87 184 152 143 118 99 85 69 66 70 68 62
194 188 185 183 184 185 190 190 199 208 188 160 156 141 159 131 122 100 100 119 256 257 209 256 233 253 244 253 234 190 172 184 217 211 163 150 125 101 95 86 78 71 67
191 187 183 181 185 187 190 192 199 198 196 178 179 167 177 165 167 147 164 328 275 303 225 237 248 238 262 272 270 241 225 239 220 205 187 175 143 113 100 92 88 78 70
Height
1513 1511 1509 1509 1509 1509 1508 1508 1507 1507 1506 1506 1506 1507 1508 1510 1511 1512 1514 1515 1516 1517 1519 1520 1522 1523 1524 1526 1528 1529 1531 1533 1535 1537 1539 1541 1543 1545 1547 1549 1551 1552 1553
1514 1512 1511 1511 1511 1510 1510 1510 1509 1508 1508 1507 1508 1509 1510 1511 1512 1514 1516 1517 1518 1520 1521 1522 1524 1525 1527 1528 1530 1532 1534 1536 1538 1539 1541 1543 1545 1547 1549 1550 1552 1554 1554
1514 1514 1513 1512 1512 1513 1512 1512 1512 1511 1510 1509 1509 1510 1511 1513 1514 1516 1518 1519 1521 1522 1523 1525 1526 1528 1529 1531 1532 1534 1536 1538 1540 1541 1544 1547 1547 1548 1550 1552 1553 1554 1555
1517 1517 1516 1515 1515 1515 1515 1515 1514 1513 1512 1511 1511 1512 1513 1515 1516 1518 1520 1522 1523 1525 1526 1527 1528 1530 1531 1533 1535 1536 1538 1539 1541 1543 1547 1549 1550 1550 1552 1553 1554 1556 1557
1519 1519 1518 1517 1517 1517 1517 1517 1516 1516 1515 1514 1514 1515 1516 1517 1519 1520 1522 1524 1525 1527 1528 1529 1530 1532 1534 1535 1537 1538 1540 1541 1543 1546 1548 1550 1551 1552 1553 1555 1556 1557 1558
1522 1522 1521 1520 1520 1519 1519 1519 1519 1518 1517 1517 1518 1518 1519 1520 1522 1523 1525 1526 1528 1529 1530 1532 1533 1535 1536 1538 1539 1540 1541 1542 1544 1548 1550 1552 1553 1553 1555 1556 1557 1558 1559
1524 1525 1524 1522 1522 1522 1521 1521 1521 1520 1520 1520 1521 1522 1523 1524 1525 1526 1527 1529 1531 1532 1533 1534 1536 1537 1539 1540 1541 1542 1543 1544 1547 1550 1552 1554 1554 1555 1556 1557 1558 1559 1560
1526 1527 1526 1524 1524 1524 1523 1523 1524 1523 1523 1524 1524 1525 1526 1527 1528 1529 1530 1531 1533 1534 1535 1537 1538 1539 1541 1542 1543 1545 1546 1547 1550 1553 1554 1555 1555 1556 1557 1558 1559 1560 1561
1529 1529 1529 1529 1527 1526 1526 1526 1526 1526 1526 1527 1528 1528 1529 1530 1531 1532 1533 1534 1536 1537 1538 1539 1540 1542 1543 1544 1546 1547 1548 1550 1553 1555 1556 1557 1556 1557 1558 1559 1560 1561 1562
1530 1531 1531 1531 1531 1531 1530 1529 1529 1529 1530 1530 1531 1531 1532 1534 1535 1535 1536 1537 1538 1540 1541 1542 1543 1544 1545 1547 1548 1549 1550 1552 1555 1556 1557 1557 1558 1558 1559 1560 1561 1562 1563
1532 1533 1533 1533 1533 1534 1534 1533 1533 1532 1533 1533 1534 1535 1536 1538 1539 1539 1539 1540 1541 1542 1543 1544 1546 1547 1548 1549 1550 1551 1553 1555 1557 1558 1558 1558 1558 1559 1560 1561 1562 1563 1564
1534 1535 1535 1536 1536 1536 1536 1536 1536 1537 1536 1536 1537 1538 1539 1540 1541 1542 1541 1542 1543 1544 1546 1546 1548 1549 1550 1552 1552 1553 1555 1557 1558 1559 1559 1559 1559 1560 1561 1561 1562 1563 1564
1536 1537 1537 1537 1537 1538 1538 1539 1539 1539 1539 1540 1540 1540 1541 1542 1543 1544 1544 1544 1545 1547 1548 1549 1550 1552 1553 1553 1554 1556 1557 1557 1559 1559 1559 1559 1560 1560 1561 1561 1562 1563 1564
1538 1539 1539 1540 1539 1539 1540 1541 1541 1542 1542 1542 1542 1543 1543 1543 1544 1545 1545 1546 1547 1548 1549 1551 1552 1553 1553 1554 1555 1556 1557 1558 1559 1559 1559 1559 1560 1560 1561 1561 1562 1562 1563
1539 1540 1541 1541 1541 1541 1541 1542 1544 1544 1544 1545 1544 1544 1545 1545 1546 1547 1547 1548 1549 1550 1551 1551 1552 1553 1554 1555 1555 1556 1557 1558 1558 1559 1559 1559 1559 1560 1560 1561 1561 1562 1562
1541 1542 1542 1542 1543 1543 1543 1544 1545 1546 1545 1546 1546 1546 1546 1547 1547 1548 1549 1549 1550 1551 1552 1552 1553 1553 1554 1555 1555 1556 1557 1557 1557 1558 1559 1559 1559 1559 1559 1560 1560 1561 1561
1541 1542 1543 1544 1544 1544 1545 1546 1547 1547 1547 1547 1548 1547 1548 1549 1549 1549 1550 1550 1551 1552 1552 1553 1553 1554 1555 1555 1555 1556 1556 1557 1557 1558 1558 1559 1559 1558 1558 1559 1559 1559 1560
1542 1542 1543 1545 1545 1545 1546 1546 1547 1548 1548 1548 1549 1549 1549 1549 1550 1550 1551 1552 1552 1553 1553 1553 1554 1554 1555 1555 1556 1556 1556 1556 1557 1557 1558 1558 1558 1558 1558 1558 1558 1559 1559
1541 1542 1543 1545 1546 1546 1546 1547 1548 1548 1549 1549 1550 1550 1550 1550 1550 1551 1551 1551 1552 1553 1553 1554 1554 1555 1555 1555 1556 1556 1557 1556 1556 1557 1557 1557 1557 1557 1557 1557 1557 1557 1557
1540 1542 1543 1544 1545 1546 1547 1547 1548 1549 1549 1550 1550 1550 1550 1550 1551 1551 1552 1552 1552 1553 1553 1553 1554 1554 1555 1555 1556 1556 1556 1556 1556 1557 1557 1557 1557 1557 1557 1557 1557 1556 1556
1539 1540 1542 1543 1544 1545 1547 1548 1549 1550 1550 1550 1550 1550 1550 1551 1551 1551 1552 1552 1552 1553 1553 1554 1554 1554 1555 1555 1556 1556 1556 1556 1556 1556 1556 1557 1557 1557 1556 1556 1556 1556 1556
1538 1539 1541 1542 1544 1545 1546 1547 1548 1549 1550 1550 1551 1550 1551 1551 1551 1552 1551 1552 1552 1552 1552 1553 1553 1554 1555 1555 1556 1556 1556 1557 1556 1556 1556 1556 1556 1556 1556 1556 1555 1555 1555
1536 1537 1540 1541 1542 1544 1545 1547 1548 1548 1549 1550 1551 1551 1551 1551 1551 1551 1551 1552 1552 1553 1553 1552 1553 1553 1554 1554 1554 1555 1555 1555 1556 1556 1556 1556 1555 1555 1555 1555 1555 1554 1554
1534 1536 1538 1539 1541 1543 1544 1546 1547 1549 1550 1550 1550 1551 1551 1551 1551 1551 1551 1551 1551 1553 1552 1552 1553 1553 1553 1553 1553 1553 1554 1554 1555 1555 1556 1555 1555 1555 1555 1555 1554 1553 1553
1532 1534 1536 1537 1539 1541 1543 1544 1546 1548 1549 1550 1550 1550 1550 1550 1550 1551 1551 1551 1551 1551 1551 1551 1551 1551 1552 1552 1553 1552 1552 1553 1553 1554 1554 1555 1555 1555 1554 1554 1553 1553 1553
1530 1532 1534 1535 1537 1539 1541 1543 1544 1546 1547 1548 1549 1550 1550 1551 1551 1551 1551 1550 1550 1551 1550 1550 1550 1550 1551 1551 1551 1552 1552 1552 1552 1552 1552 1553 1554 1554 1554 1553 1553 1552 1552